datetime,pool elevation
1974-12-31,7131.2
1975-01-01,7131.2
1975-01-02,7131.22
1975-01-03,7131.22
1975-01-04,7131.22
1975-01-05,7131.22
1975-01-06,7131.22
1975-01-07,7131.24
1975-01-08,7131.25
1975-01-09,7131.26
1975-01-10,7131.26
1975-01-11,7131.26
1975-01-12,7131.26
1975-01-13,7131.26
1975-01-14,7131.26
1975-01-15,7131.26
1975-01-16,7131.26
1975-01-17,7131.26
1975-01-18,7131.26
1975-01-19,7131.26
1975-01-20,7131.26
1975-01-21,7131.26
1975-01-22,7131.26
1975-01-23,7131.26
1975-01-24,7131.26
1975-01-25,7131.26
1975-01-26,7131.26
1975-01-27,7131.26
1975-01-28,7131.27
1975-01-29,7131.27
1975-01-30,7131.3
1975-01-31,7131.3
1975-02-01,7131.3
1975-02-02,7131.3
1975-02-03,7131.3
1975-02-04,7131.31
1975-02-05,7131.32
1975-02-06,7131.32
1975-02-07,7131.32
1975-02-08,7131.32
1975-02-09,7131.33
1975-02-10,7131.35
1975-02-11,7131.35
1975-02-12,7131.35
1975-02-13,7131.35
1975-02-14,7131.37
1975-02-15,7131.41
1975-02-16,7131.42
1975-02-17,7131.43
1975-02-18,7131.43
1975-02-19,7131.43
1975-02-20,7131.43
1975-02-21,7131.48
1975-02-22,7131.48
1975-02-23,7131.48
1975-02-24,7131.48
1975-02-25,7131.47
1975-02-26,7131.47
1975-02-27,7131.47
1975-02-28,7131.47
1975-03-01,7131.47
1975-03-02,7131.47
1975-03-03,7131.48
1975-03-04,7131.49
1975-03-05,7131.5
1975-03-06,7131.52
1975-03-07,7131.54
1975-03-08,7131.57
1975-03-09,7131.62
1975-03-10,7131.67
1975-03-11,7131.73
1975-03-12,7131.75
1975-03-13,7131.76
1975-03-14,7131.78
1975-03-15,7131.8
1975-03-16,7131.82
1975-03-17,7131.83
1975-03-18,7131.85
1975-03-19,7131.86
1975-03-20,7131.89
1975-03-21,7132.0
1975-03-22,7132.06
1975-03-23,7132.09
1975-03-24,7132.12
1975-03-25,7132.16
1975-03-26,7132.19
1975-03-27,7132.11
1975-03-28,7132.01
1975-03-29,7131.89
1975-03-30,7131.77
1975-03-31,7131.66
1975-04-01,7131.64
1975-04-02,7131.64
1975-04-03,7131.67
1975-04-04,7131.82
1975-04-05,7132.12
1975-04-06,7132.47
1975-04-07,7132.26
1975-04-08,7131.41
1975-04-09,7130.54
1975-04-10,7129.6
1975-04-11,7128.87
1975-04-12,7128.02
1975-04-13,7127.12
1975-04-14,7126.2
1975-04-15,7125.58
1975-04-16,7125.65
1975-04-17,7125.8
1975-04-18,7125.63
1975-04-19,7125.34
1975-04-20,7125.14
1975-04-21,7125.22
1975-04-22,7125.1
1975-04-23,7124.83
1975-04-24,7124.61
1975-04-25,7124.6
1975-04-26,7124.69
1975-04-27,7124.49
1975-04-28,7124.16
1975-04-29,7123.76
1975-04-30,7123.36
1975-05-01,7123.58
1975-05-02,7123.78
1975-05-03,7124.0
1975-05-04,7124.36
1975-05-05,7124.75
1975-05-06,7124.89
1975-05-07,7125.0
1975-05-08,7125.1
1975-05-09,7125.3
1975-05-10,7125.65
1975-05-11,7126.13
1975-05-12,7126.63
1975-05-13,7127.17
1975-05-14,7127.73
1975-05-15,7128.31
1975-05-16,7128.91
1975-05-17,7129.51
1975-05-18,7130.1
1975-05-19,7130.68
1975-05-20,7131.27
1975-05-21,7131.84
1975-05-22,7132.35
1975-05-23,7132.75
1975-05-24,7133.07
1975-05-25,7133.52
1975-05-26,7134.04
1975-05-27,7134.6
1975-05-28,7135.18
1975-05-29,7135.62
1975-05-30,7135.94
1975-05-31,7136.24
1975-06-01,7136.58
1975-06-02,7137.08
1975-06-03,7137.58
1975-06-04,7138.12
1975-06-05,7138.66
1975-06-06,7139.19
1975-06-07,7139.7
1975-06-08,7140.19
1975-06-09,7140.7
1975-06-10,7141.2
1975-06-11,7141.63
1975-06-12,7142.06
1975-06-13,7142.52
1975-06-14,7142.98
1975-06-15,7143.45
1975-06-16,7143.91
1975-06-17,7144.37
1975-06-18,7144.86
1975-06-19,7145.28
1975-06-20,7145.67
1975-06-21,7145.99
1975-06-22,7146.34
1975-06-23,7146.68
1975-06-24,7147.1
1975-06-25,7147.54
1975-06-26,7147.98
1975-06-27,7148.4
1975-06-28,7148.84
1975-06-29,7149.26
1975-06-30,7149.68
1975-07-01,7150.11
1975-07-02,7150.52
1975-07-03,7150.88
1975-07-04,7151.23
1975-07-05,7151.6
1975-07-06,7151.95
1975-07-07,7152.26
1975-07-08,7152.56
1975-07-09,7152.85
1975-07-10,7153.11
1975-07-11,7153.44
1975-07-12,7153.84
1975-07-13,7154.26
1975-07-14,7154.58
1975-07-15,7154.81
1975-07-16,7155.06
1975-07-17,7155.28
1975-07-18,7155.44
1975-07-19,7155.58
1975-07-20,7155.72
1975-07-21,7155.88
1975-07-22,7155.98
1975-07-23,7156.09
1975-07-24,7156.17
1975-07-25,7156.3
1975-07-26,7156.4
1975-07-27,7156.47
1975-07-28,7156.54
1975-07-29,7156.58
1975-07-30,7156.72
1975-07-31,7156.85
1975-08-01,7156.92
1975-08-02,7156.98
1975-08-03,7157.04
1975-08-04,7157.08
1975-08-05,7157.11
1975-08-06,7157.14
1975-08-07,7157.15
1975-08-08,7157.16
1975-08-09,7157.22
1975-08-10,7157.27
1975-08-11,7157.36
1975-08-12,7157.4
1975-08-13,7157.42
1975-08-14,7157.43
1975-08-15,7157.46
1975-08-16,7157.46
1975-08-17,7157.47
1975-08-18,7157.46
1975-08-19,7157.46
1975-08-20,7157.45
1975-08-21,7157.51
1975-08-22,7157.54
1975-08-23,7157.55
1975-08-24,7157.54
1975-08-25,7157.53
1975-08-26,7157.52
1975-08-27,7157.5
1975-08-28,7157.48
1975-08-29,7157.47
1975-08-30,7157.45
1975-08-31,7157.44
1975-09-01,7157.43
1975-09-02,7157.41
1975-09-03,7157.42
1975-09-04,7157.48
1975-09-05,7157.48
1975-09-06,7157.48
1975-09-07,7157.47
1975-09-08,7157.47
1975-09-09,7157.47
1975-09-10,7157.46
1975-09-11,7157.57
1975-09-12,7157.59
1975-09-13,7157.58
1975-09-14,7157.57
1975-09-15,7157.55
1975-09-16,7157.54
1975-09-17,7157.49
1975-09-18,7157.5
1975-09-19,7157.49
1975-09-20,7157.48
1975-09-21,7157.47
1975-09-22,7157.46
1975-09-23,7157.45
1975-09-24,7157.44
1975-09-25,7157.43
1975-09-26,7157.41
1975-09-27,7157.4
1975-09-28,7157.39
1975-09-29,7157.37
1975-09-30,7157.36
1975-10-01,7157.35
1975-10-02,7157.34
1975-10-03,7157.32
1975-10-04,7157.3
1975-10-05,7157.3
1975-10-06,7157.28
1975-10-07,7157.25
1975-10-08,7157.23
1975-10-09,7157.22
1975-10-10,7157.2
1975-10-11,7157.19
1975-10-12,7157.18
1975-10-13,7157.16
1975-10-14,7157.14
1975-10-15,7157.13
1975-10-16,7157.12
1975-10-17,7157.1
1975-10-18,7157.09
1975-10-19,7157.08
1975-10-20,7157.08
1975-10-21,7157.03
1975-10-22,7156.96
1975-10-23,7156.94
1975-10-24,7156.72
1975-10-25,7156.91
1975-10-26,7156.9
1975-10-27,7156.89
1975-10-28,7156.88
1975-10-29,7156.86
1975-10-30,7156.86
1975-10-31,7156.88
1975-11-01,7156.88
1975-11-02,7156.87
1975-11-03,7156.86
1975-11-04,7156.86
1975-11-05,7156.85
1975-11-06,7156.84
1975-11-07,7156.83
1975-11-08,7156.82
1975-11-09,7156.8
1975-11-10,7156.78
1975-11-11,7156.75
1975-11-12,7156.75
1975-11-13,7156.74
1975-11-14,7156.73
1975-11-15,7156.72
1975-11-16,7156.71
1975-11-17,7156.7
1975-11-18,7156.72
1975-11-19,7156.74
1975-11-20,7156.73
1975-11-21,7156.72
1975-11-22,7156.71
1975-11-23,7156.7
1975-11-24,7156.7
1975-11-25,7156.68
1975-11-26,7156.67
1975-11-27,7156.7
1975-11-28,7156.72
1975-11-29,7156.73
1975-11-30,7156.72
1975-12-01,7156.71
1975-12-02,7156.7
1975-12-03,7156.7
1975-12-04,7156.69
1975-12-05,7156.4
1975-12-06,7155.93
1975-12-07,7155.46
1975-12-08,7154.99
1975-12-09,7154.51
1975-12-10,7154.04
1975-12-11,7153.57
1975-12-12,7153.1
1975-12-13,7152.62
1975-12-14,7152.15
1975-12-15,7151.54
1975-12-16,7150.81
1975-12-17,7150.09
1975-12-18,7149.37
1975-12-19,7148.66
1975-12-20,7147.92
1975-12-21,7147.21
1975-12-22,7146.45
1975-12-23,7145.78
1975-12-24,7145.08
1975-12-25,7144.35
1975-12-26,7143.67
1975-12-27,7142.83
1975-12-28,7142.18
1975-12-29,7141.42
1975-12-30,7140.72
1975-12-31,7140.0
1976-01-01,7139.24
1976-01-02,7138.47
1976-01-03,7137.71
1976-01-04,7136.96
1976-01-05,7136.11
1976-01-06,7135.56
1976-01-07,7135.39
1976-01-08,7135.39
1976-01-09,7135.4
1976-01-10,7135.4
1976-01-11,7135.4
1976-01-12,7135.4
1976-01-13,7135.4
1976-01-14,7135.4
1976-01-15,7135.4
1976-01-16,7135.4
1976-01-17,7135.4
1976-01-18,7135.41
1976-01-19,7135.41
1976-01-20,7135.41
1976-01-21,7135.41
1976-01-22,7135.41
1976-01-23,7135.41
1976-01-24,7135.42
1976-01-25,7135.42
1976-01-26,7135.42
1976-01-27,7135.42
1976-01-28,7135.43
1976-01-29,7135.43
1976-01-30,7135.43
1976-01-31,7135.43
1976-02-01,7135.43
1976-02-02,7135.43
1976-02-03,7135.43
1976-02-04,7135.46
1976-02-05,7135.47
1976-02-06,7135.47
1976-02-07,7135.47
1976-02-08,7135.47
1976-02-09,7135.53
1976-02-10,7135.54
1976-02-11,7135.55
1976-02-12,7135.55
1976-02-13,7135.59
1976-02-14,7135.61
1976-02-15,7135.62
1976-02-16,7135.62
1976-02-17,7135.63
1976-02-18,7135.63
1976-02-19,7135.63
1976-02-20,7135.64
1976-02-21,7135.64
1976-02-22,7135.64
1976-02-23,7135.64
1976-02-24,7135.64
1976-02-25,7135.64
1976-02-26,7135.76
1976-02-27,7135.64
1976-02-28,7135.65
1976-02-29,7135.66
1976-03-01,7135.63
1976-03-02,7135.64
1976-03-03,7135.66
1976-03-04,7135.68
1976-03-05,7135.69
1976-03-06,7135.7
1976-03-07,7135.72
1976-03-08,7135.75
1976-03-09,7135.77
1976-03-10,7135.79
1976-03-11,7135.82
1976-03-12,7135.83
1976-03-13,7135.83
1976-03-14,7135.84
1976-03-15,7135.86
1976-03-16,7135.87
1976-03-17,7135.9
1976-03-18,7135.94
1976-03-19,7135.99
1976-03-20,7135.98
1976-03-21,7135.99
1976-03-22,7136.0
1976-03-23,7136.02
1976-03-24,7136.1
1976-03-25,7136.11
1976-03-26,7136.11
1976-03-27,7136.12
1976-03-28,7136.13
1976-03-29,7136.02
1976-03-30,7135.67
1976-03-31,7135.22
1976-04-01,7135.06
1976-04-02,7133.8
1976-04-03,7133.06
1976-04-04,7132.34
1976-04-05,7131.55
1976-04-06,7130.96
1976-04-07,7130.46
1976-04-08,7129.97
1976-04-09,7129.52
1976-04-10,7129.06
1976-04-11,7128.67
1976-04-12,7128.24
1976-04-13,7128.13
1976-04-14,7128.31
1976-04-15,7128.44
1976-04-16,7128.57
1976-04-17,7128.68
1976-04-18,7128.78
1976-04-19,7128.88
1976-04-20,7128.94
1976-04-21,7129.07
1976-04-22,7129.16
1976-04-23,7129.25
1976-04-24,7129.37
1976-04-25,7129.52
1976-04-26,7129.65
1976-04-27,7129.77
1976-04-28,7129.93
1976-04-29,7130.2
1976-04-30,7130.39
1976-05-01,7130.36
1976-05-02,7130.78
1976-05-03,7131.07
1976-05-04,7131.33
1976-05-05,7131.56
1976-05-06,7131.89
1976-05-07,7132.2
1976-05-08,7132.44
1976-05-09,7132.64
1976-05-10,7132.82
1976-05-11,7133.03
1976-05-12,7133.27
1976-05-13,7133.5
1976-05-14,7133.82
1976-05-15,7134.24
1976-05-16,7134.59
1976-05-17,7134.93
1976-05-18,7135.42
1976-05-19,7135.88
1976-05-20,7136.27
1976-05-21,7136.65
1976-05-22,7137.02
1976-05-23,7137.3
1976-05-24,7137.57
1976-05-25,7137.85
1976-05-26,7138.11
1976-05-27,7138.42
1976-05-28,7138.82
1976-05-29,7139.21
1976-05-30,7139.63
1976-05-31,7139.91
1976-06-01,7140.26
1976-06-02,7140.66
1976-06-03,7141.06
1976-06-04,7141.45
1976-06-05,7141.9
1976-06-06,7142.29
1976-06-07,7142.7
1976-06-08,7143.11
1976-06-09,7143.49
1976-06-10,7143.86
1976-06-11,7144.14
1976-06-12,7144.39
1976-06-13,7144.61
1976-06-14,7144.8
1976-06-15,7144.94
1976-06-16,7145.03
1976-06-17,7145.17
1976-06-18,7145.28
1976-06-19,7145.41
1976-06-20,7145.57
1976-06-21,7145.72
1976-06-22,7145.88
1976-06-23,7146.01
1976-06-24,7146.11
1976-06-25,7146.19
1976-06-26,7146.28
1976-06-27,7146.36
1976-06-28,7146.42
1976-06-29,7146.41
1976-06-30,7146.42
1976-07-01,7146.47
1976-07-02,7146.54
1976-07-03,7146.6
1976-07-04,7146.64
1976-07-05,7146.64
1976-07-06,7146.64
1976-07-07,7146.7
1976-07-08,7146.68
1976-07-09,7146.7
1976-07-10,7146.72
1976-07-11,7146.73
1976-07-12,7146.74
1976-07-13,7146.75
1976-07-14,7146.78
1976-07-15,7146.79
1976-07-16,7146.81
1976-07-17,7146.81
1976-07-18,7146.82
1976-07-19,7146.82
1976-07-20,7146.82
1976-07-21,7146.74
1976-07-22,7146.73
1976-07-23,7146.73
1976-07-24,7146.71
1976-07-25,7146.71
1976-07-26,7146.71
1976-07-27,7146.78
1976-07-28,7146.8
1976-07-29,7146.8
1976-07-30,7146.79
1976-07-31,7146.79
1976-08-01,7146.86
1976-08-02,7146.86
1976-08-03,7146.88
1976-08-04,7146.9
1976-08-05,7146.84
1976-08-06,7146.82
1976-08-07,7146.81
1976-08-08,7146.8
1976-08-09,7146.81
1976-08-10,7146.79
1976-08-11,7146.75
1976-08-12,7146.74
1976-08-13,7146.72
1976-08-14,7146.7
1976-08-15,7146.68
1976-08-16,7146.67
1976-08-17,7146.66
1976-08-18,7146.64
1976-08-19,7146.64
1976-08-20,7146.63
1976-08-21,7146.63
1976-08-22,7146.62
1976-08-23,7146.65
1976-08-24,7146.61
1976-08-25,7146.58
1976-08-26,7146.57
1976-08-27,7146.56
1976-08-28,7146.55
1976-08-29,7146.54
1976-08-30,7146.53
1976-08-31,7146.48
1976-09-01,7146.45
1976-09-02,7146.45
1976-09-03,7146.44
1976-09-04,7146.43
1976-09-05,7146.41
1976-09-06,7146.42
1976-09-07,7146.59
1976-09-08,7146.34
1976-09-09,7146.35
1976-09-10,7146.35
1976-09-11,7146.38
1976-09-12,7146.38
1976-09-13,7146.38
1976-09-14,7146.34
1976-09-15,7146.31
1976-09-16,7146.3
1976-09-17,7146.29
1976-09-18,7146.28
1976-09-19,7146.27
1976-09-20,7146.24
1976-09-21,7146.24
1976-09-22,7146.2
1976-09-23,7146.19
1976-09-24,7146.18
1976-09-25,7146.24
1976-09-26,7146.34
1976-09-27,7146.49
1976-09-28,7146.5
1976-09-29,7146.54
1976-09-30,7146.57
1976-10-01,7146.59
1976-10-02,7146.6
1976-10-03,7146.61
1976-10-04,7146.62
1976-10-05,7146.61
1976-10-06,7146.59
1976-10-07,7146.58
1976-10-08,7146.59
1976-10-09,7146.59
1976-10-10,7146.58
1976-10-11,7146.57
1976-10-12,7146.57
1976-10-13,7146.54
1976-10-14,7146.51
1976-10-15,7146.51
1976-10-16,7146.49
1976-10-17,7146.48
1976-10-18,7146.45
1976-10-19,7146.42
1976-10-20,7146.4
1976-10-21,7146.39
1976-10-22,7146.4
1976-10-23,7146.39
1976-10-24,7146.39
1976-10-25,7146.38
1976-10-26,7146.37
1976-10-27,7146.33
1976-10-28,7146.31
1976-10-29,7146.31
1976-10-30,7146.3
1976-10-31,7146.29
1976-11-01,7146.28
1976-11-02,7146.26
1976-11-03,7146.24
1976-11-04,7146.24
1976-11-05,7146.23
1976-11-06,7146.22
1976-11-07,7146.22
1976-11-08,7146.2
1976-11-09,7146.18
1976-11-10,7146.15
1976-11-11,7146.15
1976-11-12,7146.14
1976-11-13,7146.13
1976-11-14,7146.12
1976-11-15,7146.12
1976-11-16,7146.09
1976-11-17,7146.07
1976-11-18,7146.07
1976-11-19,7146.07
1976-11-20,7146.06
1976-11-21,7146.05
1976-11-22,7146.05
1976-11-23,7146.03
1976-11-24,7146.01
1976-11-25,7146.0
1976-11-26,7145.99
1976-11-27,7146.01
1976-11-28,7146.0
1976-11-29,7146.0
1976-11-30,7145.97
1976-12-01,7145.96
1976-12-02,7145.95
1976-12-03,7145.95
1976-12-04,7145.94
1976-12-05,7145.93
1976-12-06,7145.93
1976-12-07,7145.9
1976-12-08,7145.88
1976-12-09,7145.88
1976-12-10,7145.84
1976-12-11,7145.84
1976-12-12,7145.84
1976-12-13,7145.16
1976-12-14,7144.09
1976-12-15,7143.0
1976-12-16,7141.9
1976-12-17,7140.75
1976-12-18,7139.63
1976-12-19,7138.44
1976-12-20,7137.21
1976-12-21,7136.01
1976-12-22,7134.78
1976-12-23,7134.24
1976-12-24,7134.24
1976-12-25,7134.24
1976-12-26,7134.24
1976-12-27,7134.21
1976-12-28,7134.23
1976-12-29,7134.23
1976-12-30,7134.23
1976-12-31,7134.23
1977-01-01,7134.24
1977-01-02,7134.25
1977-01-03,7134.29
1977-01-04,7134.29
1977-01-05,7134.3
1977-01-06,7134.3
1977-01-07,7134.3
1977-01-08,7134.31
1977-01-09,7134.32
1977-01-10,7134.31
1977-01-11,7134.32
1977-01-12,7134.32
1977-01-13,7134.32
1977-01-14,7134.32
1977-01-15,7134.32
1977-01-16,7134.32
1977-01-17,7134.32
1977-01-18,7134.32
1977-01-19,7134.32
1977-01-20,7134.32
1977-01-21,7134.32
1977-01-22,7134.32
1977-01-23,7134.33
1977-01-24,7134.33
1977-01-25,7134.33
1977-01-26,7134.33
1977-01-27,7134.33
1977-01-28,7134.33
1977-01-29,7134.33
1977-01-30,7134.32
1977-01-31,7134.32
1977-02-01,7134.32
1977-02-02,7134.32
1977-02-03,7134.32
1977-02-04,7134.32
1977-02-05,7134.32
1977-02-06,7134.32
1977-02-07,7134.32
1977-02-08,7134.32
1977-02-09,7134.32
1977-02-10,7134.32
1977-02-11,7134.32
1977-02-12,7134.32
1977-02-13,7134.32
1977-02-14,7134.32
1977-02-15,7134.32
1977-02-16,7134.32
1977-02-17,7134.32
1977-02-18,7134.32
1977-02-19,7134.32
1977-02-20,7134.32
1977-02-21,7134.32
1977-02-22,7134.33
1977-02-23,7134.33
1977-02-24,7134.34
1977-02-25,7134.34
1977-02-26,7134.39
1977-02-27,7134.39
1977-02-28,7134.34
1977-03-01,7134.34
1977-03-02,7134.35
1977-03-03,7134.34
1977-03-04,7134.34
1977-03-05,7134.34
1977-03-06,7134.34
1977-03-07,7134.34
1977-03-08,7134.35
1977-03-09,7134.35
1977-03-10,7134.37
1977-03-11,7134.37
1977-03-12,7134.36
1977-03-13,7134.36
1977-03-14,7134.36
1977-03-15,7134.36
1977-03-16,7134.36
1977-03-17,7134.29
1977-03-18,7134.22
1977-03-19,7134.22
1977-03-20,7134.22
1977-03-21,7134.22
1977-03-22,7134.17
1977-03-23,7134.12
1977-03-24,7134.13
1977-03-25,7134.14
1977-03-26,7134.14
1977-03-27,7134.14
1977-03-28,7134.12
1977-03-29,7134.1
1977-03-30,7134.09
1977-03-31,7134.08
1977-04-01,7134.08
1977-04-02,7134.08
1977-04-03,7134.1
1977-04-04,7134.09
1977-04-05,7134.07
1977-04-06,7134.06
1977-04-07,7134.06
1977-04-08,7134.07
1977-04-09,7134.13
1977-04-10,7134.21
1977-04-11,7134.27
1977-04-12,7134.27
1977-04-13,7134.25
1977-04-14,7134.25
1977-04-15,7134.26
1977-04-16,7134.29
1977-04-17,7134.34
1977-04-18,7134.42
1977-04-19,7134.47
1977-04-20,7134.48
1977-04-21,7134.51
1977-04-22,7134.55
1977-04-23,7134.59
1977-04-24,7134.63
1977-04-25,7134.68
1977-04-26,7134.7
1977-04-27,7134.74
1977-04-28,7134.8
1977-04-29,7134.87
1977-04-30,7134.94
1977-05-01,7135.02
1977-05-02,7135.05
1977-05-03,7135.08
1977-05-04,7135.07
1977-05-05,7135.11
1977-05-06,7135.16
1977-05-07,7135.22
1977-05-08,7135.3
1977-05-09,7135.4
1977-05-10,7135.49
1977-05-11,7135.5
1977-05-12,7135.56
1977-05-13,7135.59
1977-05-14,7135.62
1977-05-15,7135.63
1977-05-16,7135.63
1977-05-17,7135.62
1977-05-18,7135.6
1977-05-19,7135.61
1977-05-20,7135.59
1977-05-21,7135.58
1977-05-22,7135.58
1977-05-23,7135.57
1977-05-24,7135.54
1977-05-25,7135.49
1977-05-26,7135.47
1977-05-27,7135.45
1977-05-28,7135.45
1977-05-29,7135.45
1977-05-30,7135.47
1977-05-31,7135.52
1977-06-01,7135.54
1977-06-02,7135.62
1977-06-03,7135.69
1977-06-04,7135.76
1977-06-05,7135.82
1977-06-06,7135.87
1977-06-07,7135.87
1977-06-08,7135.89
1977-06-09,7135.89
1977-06-10,7135.89
1977-06-11,7135.89
1977-06-12,7135.88
1977-06-13,7135.87
1977-06-14,7135.84
1977-06-15,7135.79
1977-06-16,7135.77
1977-06-17,7135.74
1977-06-18,7135.72
1977-06-19,7135.7
1977-06-20,7135.68
1977-06-21,7135.66
1977-06-22,7135.58
1977-06-23,7135.56
1977-06-24,7135.4
1977-06-25,7134.88
1977-06-26,7134.4
1977-06-27,7133.94
1977-06-28,7133.44
1977-06-29,7132.94
1977-06-30,7132.45
1977-07-01,7132.33
1977-07-02,7132.03
1977-07-03,7131.74
1977-07-04,7131.51
1977-07-05,7131.25
1977-07-06,7130.97
1977-07-07,7130.67
1977-07-08,7130.38
1977-07-09,7130.09
1977-07-10,7129.78
1977-07-11,7129.48
1977-07-12,7129.18
1977-07-13,7128.98
1977-07-14,7128.88
1977-07-15,7128.87
1977-07-16,7128.86
1977-07-17,7128.85
1977-07-18,7128.84
1977-07-19,7128.82
1977-07-20,7128.78
1977-07-21,7128.85
1977-07-22,7128.92
1977-07-23,7128.93
1977-07-24,7129.04
1977-07-25,7129.07
1977-07-26,7129.12
1977-07-27,7129.12
1977-07-28,7129.14
1977-07-29,7129.14
1977-07-30,7129.13
1977-07-31,7129.13
1977-08-01,7129.11
1977-08-02,7129.08
1977-08-03,7129.04
1977-08-04,7129.01
1977-08-05,7129.0
1977-08-06,7128.97
1977-08-07,7128.95
1977-08-08,7128.91
1977-08-09,7128.88
1977-08-10,7128.66
1977-08-11,7128.21
1977-08-12,7127.98
1977-08-13,7127.96
1977-08-14,7127.87
1977-08-15,7127.87
1977-08-16,7127.93
1977-08-17,7128.09
1977-08-18,7128.44
1977-08-19,7128.5
1977-08-20,7128.58
1977-08-21,7128.65
1977-08-22,7128.72
1977-08-23,7128.74
1977-08-24,7128.75
1977-08-25,7128.78
1977-08-26,7128.78
1977-08-27,7128.78
1977-08-28,7128.78
1977-08-29,7128.78
1977-08-30,7128.68
1977-08-31,7128.39
1977-09-01,7128.09
1977-09-02,7127.85
1977-09-03,7127.84
1977-09-04,7127.85
1977-09-05,7127.84
1977-09-06,7127.83
1977-09-07,7127.82
1977-09-08,7127.77
1977-09-09,7127.76
1977-09-10,7127.75
1977-09-11,7127.78
1977-09-12,7127.93
1977-09-13,7127.96
1977-09-14,7127.95
1977-09-15,7127.96
1977-09-16,7127.97
1977-09-17,7127.96
1977-09-18,7127.95
1977-09-19,7127.95
1977-09-20,7127.92
1977-09-21,7127.61
1977-09-22,7127.54
1977-09-23,7127.27
1977-09-24,7126.98
1977-09-25,7126.68
1977-09-26,7126.34
1977-09-27,7126.1
1977-09-28,7125.98
1977-09-29,7125.98
1977-09-30,7125.98
1977-10-01,7125.98
1977-10-02,7125.98
1977-10-03,7125.95
1977-10-04,7125.76
1977-10-05,7125.46
1977-10-06,7125.18
1977-10-07,7125.14
1977-10-08,7125.17
1977-10-09,7125.19
1977-10-10,7125.19
1977-10-11,7125.18
1977-10-12,7125.18
1977-10-13,7125.12
1977-10-14,7125.12
1977-10-15,7125.12
1977-10-16,7125.1
1977-10-17,7125.06
1977-10-18,7124.98
1977-10-19,7124.93
1977-10-20,7124.79
1977-10-21,7124.53
1977-10-22,7124.24
1977-10-23,7124.13
1977-10-24,7124.12
1977-10-25,7124.11
1977-10-26,7124.04
1977-10-27,7124.04
1977-10-28,7124.03
1977-10-29,7124.02
1977-10-30,7124.02
1977-10-31,7124.0
1977-11-01,7123.99
1977-11-02,7123.98
1977-11-03,7123.98
1977-11-04,7123.97
1977-11-05,7123.96
1977-11-06,7123.99
1977-11-07,7124.04
1977-11-08,7124.03
1977-11-09,7124.02
1977-11-10,7124.02
1977-11-11,7124.02
1977-11-12,7124.01
1977-11-13,7124.0
1977-11-14,7124.0
1977-11-15,7123.92
1977-11-16,7123.86
1977-11-17,7123.86
1977-11-18,7123.85
1977-11-19,7123.83
1977-11-20,7123.82
1977-11-21,7123.81
1977-11-22,7123.81
1977-11-23,7123.81
1977-11-24,7123.8
1977-11-25,7123.79
1977-11-26,7123.99
1977-11-27,7123.78
1977-11-28,7123.78
1977-11-29,7123.77
1977-11-30,7123.77
1977-12-01,7123.75
1977-12-02,7123.74
1977-12-03,7123.73
1977-12-04,7123.72
1977-12-05,7123.71
1977-12-06,7123.7
1977-12-07,7123.7
1977-12-08,7123.43
1977-12-09,7122.95
1977-12-10,7122.49
1977-12-11,7122.03
1977-12-12,7121.54
1977-12-13,7121.36
1977-12-14,7121.09
1977-12-15,7120.61
1977-12-16,7120.12
1977-12-17,7119.62
1977-12-18,7119.15
1977-12-19,7118.96
1977-12-20,7118.93
1977-12-21,7118.93
1977-12-22,7118.93
1977-12-23,7118.93
1977-12-24,7118.93
1977-12-25,7118.93
1977-12-26,7118.93
1977-12-27,7118.93
1977-12-28,7118.93
1977-12-29,7118.93
1977-12-30,7118.94
1977-12-31,7118.95
1978-01-01,7118.95
1978-01-02,7118.95
1978-01-03,7118.94
1978-01-04,7118.93
1978-01-05,7118.93
1978-01-06,7118.95
1978-01-07,7118.95
1978-01-08,7118.96
1978-01-09,7118.96
1978-01-10,7118.96
1978-01-11,7118.96
1978-01-12,7118.96
1978-01-13,7118.96
1978-01-14,7118.96
1978-01-15,7118.96
1978-01-16,7119.0
1978-01-17,7119.03
1978-01-18,7119.05
1978-01-19,7119.05
1978-01-20,7119.05
1978-01-21,7119.05
1978-01-22,7119.06
1978-01-23,7119.06
1978-01-24,7119.08
1978-01-25,7119.08
1978-01-26,7119.08
1978-01-27,7119.07
1978-01-28,7119.07
1978-01-29,7119.07
1978-01-30,7119.06
1978-01-31,7119.12
1978-02-01,7119.13
1978-02-02,7119.14
1978-02-03,7119.14
1978-02-04,7119.14
1978-02-05,7119.14
1978-02-06,7119.14
1978-02-07,7119.14
1978-02-08,7119.18
1978-02-09,7119.18
1978-02-10,7119.19
1978-02-11,7119.21
1978-02-12,7119.21
1978-02-13,7119.21
1978-02-14,7119.21
1978-02-15,7119.22
1978-02-16,7119.24
1978-02-17,7119.24
1978-02-18,7119.24
1978-02-19,7119.25
1978-02-20,7119.25
1978-02-21,7119.25
1978-02-22,7119.25
1978-02-23,7119.25
1978-02-24,7119.25
1978-02-25,7119.25
1978-02-26,7119.25
1978-02-27,7119.25
1978-02-28,7119.27
1978-03-01,7119.34
1978-03-02,7119.4
1978-03-03,7119.5
1978-03-04,7119.54
1978-03-05,7119.6
1978-03-06,7119.66
1978-03-07,7119.66
1978-03-08,7119.68
1978-03-09,7119.72
1978-03-10,7119.73
1978-03-11,7119.73
1978-03-12,7119.72
1978-03-13,7119.67
1978-03-14,7119.61
1978-03-15,7119.53
1978-03-16,7119.47
1978-03-17,7119.46
1978-03-18,7119.51
1978-03-19,7119.55
1978-03-20,7119.64
1978-03-21,7119.78
1978-03-22,7119.74
1978-03-23,7119.62
1978-03-24,7119.64
1978-03-25,7119.65
1978-03-26,7119.66
1978-03-27,7119.63
1978-03-28,7119.42
1978-03-29,7119.35
1978-03-30,7119.41
1978-03-31,7119.7
1978-04-01,7120.02
1978-04-02,7120.17
1978-04-03,7120.21
1978-04-04,7120.23
1978-04-05,7120.3
1978-04-06,7120.43
1978-04-07,7120.62
1978-04-08,7120.87
1978-04-09,7121.12
1978-04-10,7121.3
1978-04-11,7121.37
1978-04-12,7121.56
1978-04-13,7121.86
1978-04-14,7122.12
1978-04-15,7122.32
1978-04-16,7122.51
1978-04-17,7122.68
1978-04-18,7122.76
1978-04-19,7122.86
1978-04-20,7123.04
1978-04-21,7123.27
1978-04-22,7123.48
1978-04-23,7123.67
1978-04-24,7123.92
1978-04-25,7124.18
1978-04-26,7124.44
1978-04-27,7124.54
1978-04-28,7124.55
1978-04-29,7124.81
1978-04-30,7125.1
1978-05-01,7125.29
1978-05-02,7125.48
1978-05-03,7125.59
1978-05-04,7125.69
1978-05-05,7125.87
1978-05-06,7125.97
1978-05-07,7126.08
1978-05-08,7126.18
1978-05-09,7126.18
1978-05-10,7126.27
1978-05-11,7126.34
1978-05-12,7126.46
1978-05-13,7126.72
1978-05-14,7127.09
1978-05-15,7127.55
1978-05-16,7128.04
1978-05-17,7128.61
1978-05-18,7128.97
1978-05-19,7129.35
1978-05-20,7129.19
1978-05-21,7130.25
1978-05-22,7130.62
1978-05-23,7131.05
1978-05-24,7131.51
1978-05-25,7131.96
1978-05-26,7132.37
1978-05-27,7132.77
1978-05-28,7133.13
1978-05-29,7133.46
1978-05-30,7133.86
1978-05-31,7134.29
1978-06-01,7134.77
1978-06-02,7135.27
1978-06-03,7135.77
1978-06-04,7136.28
1978-06-05,7136.74
1978-06-06,7137.19
1978-06-07,7137.53
1978-06-08,7137.9
1978-06-09,7138.3
1978-06-10,7138.22
1978-06-11,7139.26
1978-06-12,7139.72
1978-06-13,7140.2
1978-06-14,7140.72
1978-06-15,7141.22
1978-06-16,7141.68
1978-06-17,7141.88
1978-06-18,7142.03
1978-06-19,7142.14
1978-06-20,7142.13